www.pogodaiklimat.ru

Погода и климат >> Архив погоды >> Китай >> Lu Shan


ПОГОДА в Lu Shan

  • Прогноз погоды в Lu Shan
  • Монитор погоды в Lu Shan
  • Климат города

АРХИВ ПОГОДЫ в Lu Shan

Время (UTC), дата Ветер
(напр.,м/с)
 
Видим.   Явления Облачность Т
(С)
Тd
(С)
f
(%)
Тe
(С)
Тes
(С)
Комфортность P
(гПа)
Po
(гПа)
Тmin
(С)
Tmax
(С)
R
(мм)
R24
(мм)
S
(см)
06 13.11 С 1 <100 м туман {дождь} ?/? +10.0 +10.0 100 +9 +9 1017.0 1017.0 +8.9 6
09 13.11 С 2 <100 м слабый дождь {туман} н/о +9.6 +9.6 100 +8 +8 1017.4 1017.0
12 13.11 СВ 1 24 км слабый дождь {туман} 10/10
[]
+10.1 +10.1 100 +9 +9 1018.7 1019.0 6
18 13.11 С 4 100 м туман ?/? +8.9 +8.9 100 +6 +6 1020.6 1021.0 +12.2 0.5
21 13.11 С 3 100 м туман н/о +8.1 +8.1 100 +5 +5 1019.9 1020.0
00 14.11 СВ 5 100 м туман ?/? +8.9 +8.9 100 +5 +5 1022.0 1022.0 0.5
03 14.11 В 5 19 км слабый дождь {туман} 9/9 100 м
[]
+10.9 +10.9 100 +8 +8 1022.1 1022.0
06 14.11 С 1 4400 м {дождь, туман} ?/? +12.5 +11.9 96 +12 +12 1019.3 1019.0 +7.4 0.1
09 14.11 В 3 <100 м туман ?/? +8.1 +8.1 100 +5 +5 1021.3 1021.0
12 14.11 В 6 100 м слабый дождь {туман} ?/? +7.6 +7.6 100 +3 +3 1022.4 1022.0 0.1
18 14.11 ЮЗ 1 500 м туман ?/? +9.5 +9.5 100 +9 +9 1021.4 1021.0 +13.8 0.1
21 14.11 штиль 0 н/о в посл. час туман н/о +9.6 +9.6 100 +9 +9 1022.1 1022.0
00 15.11 СВ 2 300 м дымка ?/? +9.5 +9.5 100 +8 +8 1023.2 1023.0 0.1
03 15.11 С 1 2700 м дымка 9/9
[]
+11.3 +11.3 100 +11 +12 1022.6 1023.0
06 15.11 С 1 <100 м туман ?/? +10.4 +10.4 100 +10 +10 1021.2 1021.0 +7.5
09 15.11 СВ 2 1700 м дымка {туман} н/о +10.0 +10.0 100 +8 +8 1020.7 1021.0
12 15.11 ЮВ 4 16 км {туман} 10/10 100 м
[]
+9.5 +9.5 100 +6 +6 1021.3 1021.0
18 15.11 Ю 2 300 м туман ?/? +10.2 +10.2 100 +9 +9 1020.2 1020.0 +11.5
21 15.11 Ю 1 3100 м дымка н/о +10.5 +10.5 100 +10 +10 1019.4 1019.0
00 16.11 Ю 1 14 км 10/10 200 м
[]
+11.6 +11.6 100 +11 +11 1019.7 1020.0
03 16.11 Ю 3 9000 м слабый дождь н/о +11.9 +11.9 100 +10 +10 1019.7 1020.0
06 16.11 Ю 3 13 км {дождь} 10/10 100 м
[]
+12.5 +12.5 100 +11 +11 1016.5 1018.0 +8.6 0.3
09 16.11 Ю 2 11 км 10/10 100 м
[]
+12.9 +12.9 100 +12 +12 1015.9 1016.0
12 16.11 Ю 2 19 км слабый дождь 10/10 100 м
[]
+13.7 +13.7 100 +13 +13 1015.8 1016.0 0.0
18 16.11 Ю 2 200 м туман ?/? +13.1 +13.1 100 +12 +12 1014.8 884.1 +15.5 2
21 16.11 ЮЗ 3 200 м туман н/о +13.5 +13.5 100 +12 +12 1013.5 1014.0
00 17.11 Ю 1 600 м слабый дождь ?/? +13.9 +13.9 100 +14 +14 1014.0 1014.0 3
03 17.11 штиль 0 700 м в посл. час туман ?/? +14.6 +14.6 100 +14 +14 1013.7 1014.0
06 17.11 С 3 100 м туман ?/? +12.8 +12.8 100 +11 +11 1012.2 1035.1 +12.5
09 17.11 В 7 200 м слабый дождь {туман} ?/? +10.1 +10.1 100 +6 +6 1013.0 1013.0
12 17.11 СВ 13
{20}
300 м слабый дождь {туман} ?/? +9.2 +9.2 100 +4 +4 1015.2 883.9 4
18 17.11 С 14
{25}
200 м туман ?/? +7.1 +7.1 100 0 0 1019.0 1019.0 +15.2 7
21 17.11 СВ 15
{27}
100 м туман ?/? +3.9 +3.9 100 -4 -4 1022.0 1022.0
00 18.11 СВ 14
{27}
100 м туман ?/? +1.5 +1.5 100 -8 -8 1025.2 1025.0 7
03 18.11 СВ 15
{26}
200 м туман ?/? +0.5 +0.5 100 -9 -9 1027.5 1028.0
06 18.11 В 13
{23}
29 км {туман} 10/10 100 м
[]
+1.6 -5.3 60 -6 -6 1026.2 1052.0 -0.2
09 18.11 СВ 10
{23}
30 км 5/5 300 м
[]
+0.1 -2.6 82 -8 -8 1028.6 1029.0
12 18.11 СВ 9
{19}
23 км 6/6 200 м
[]
-0.7 -3.5 81 -9 -9 1029.4 891.3
18 18.11 ЮВ 1 30 км ?/? +2.2 -11.7 35 +2 +2 1029.1 1029.0 +7.1
21 18.11 штиль 0 30 км ?/? +2.4 -8.0 46 +2 +2 1027.8 1028.0
00 19.11 В 2 30 км 10/10 1500 м
[]
+1.5 -5.6 59 -1 -1 1029.0 1029.0
03 19.11 штиль 0 22 км 9/9 1500 м
[]
+6.3 0.0 64 +6 +7 1027.6 1028.0
06 19.11 Ю 1 20 км 10/10 1500 м
[]
+4.1 +1.5 83 +3 +3 1025.2 1025.0 -1.8
09 19.11 С 2 <100 м туман ?/? +0.9 +0.8 99 -3 -3 1026.9 1027.0
12 19.11 С 5 27 км {туман} 10/10 1500 м
[]
+0.3 -2.1 84 -6 -6 1028.6 1029.0
18 19.11 штиль 0 8000 м ?/? -0.8 -0.8 100 -2 -2 1029.2 1029.0 +7.1 1
21 19.11 штиль 0 <100 м туман ?/? -1.0 -1.0 100 -2 -2 1030.5 1031.0
00 20.11 С 3 100 м туман [диам. гололёда 27 мм] ?/? -0.8 -0.8 100 -6 -6 1030.9 1031.0 1
03 20.11 СВ 2 400 м в посл. час туман ?/? +0.7 +0.7 100 -3 -3 1031.5 1032.0

 

Местоположение метеостанции Lu Shan (Китай): широта 29.58 долгота 115.98 высота над уровнем моря 1165 м.

В архиве по умолчанию представлена погода в Lu Shan за последнюю неделю. Архивные данные за месяц целиком и за предыдущие месяцы, начиная с января 2011 года, Вы можете получить, выбрав интересующий диапазон дат из раскрывающегося списка и нажав кнопку "Ввод!".

Внимание! Время в таблицах - всемирное. Для получения местного времени необходимо прибавить поправку, которая в Lu Shan равна 8 ч.

Смотрите также архив погоды в соседних городах и на ближайших метеорологических станциях:

Погода в Nanchang (Китай) (109 км)
Погода в Jingdezhen (Китай) (122 км)
Погода в Anqing (Китай) (148 км)
Погода в Xiushui (Китай) (149 км)
Погода в Macheng (Китай) (203 км)
Погода в Huoshan (Китай) (205 км)
Погода в Wuhan (Китай) (212 км)
Погода в Huang Shan (Китай) (218 км)
Погода в Nancheng (Китай) (232 км)
Погода в Yichun (Китай) (252 км)

Пояснения к столбцам:

Ветер - указаны скорость ветра в м/с - средняя за 10 мин, порывы в срок и между сроками (в фигурных скобках) и направление, откуда дует ветер: С - северный, СВ - северо-восточный, В - восточный, ЮВ - юго-восточный, Ю - южный, ЮЗ - юго-западный, З - западный, СЗ - северо-западный.
Видимость - горизонтальная дальность видимости в метрах или километрах. При видимости от 1 до 10 км при отсутствии осадков обычно наблюдается дымка, при ухудшении видимости до 1 км и менее - туман. В сухую погоду видимость может ухудшаться дымом, пылью или мглою.
Явления - указаны атмосферные явления, наблюдавшиеся в срок или в последний час перед сроком; фигурными скобками обозначены явления, наблюдавшиеся между сроками (за 1-3 часа до срока); квадратными скобками обозначены град или гололедные отложения с указанием их диаметра в мм.
Облачность - указаны через наклонную черту общая и нижняя облачность в баллах и высота нижней границы облаков в метрах; квадратными скобками обозначены формы облаков: Ci - перистые, Cs - перисто-слоистые, Cc - перисто-кучевые, Ac - высококучевые, As - высокослоистые, Sc - слоисто-кучевые, Ns - слоисто-дождевые, Cu - кучевые, Cb - кучево-дождевые. Подробнее классификацию облаков см. в Атласе облаков (PDF).
T - Температура воздуха - температура, измеренная на высоте 2 м над землей.
Td - Температура точки росы - температура, при понижении до которой содержащийся в воздухе водяной пар достигнет насыщения.
f - Относительная влажность воздуха - влажноcть воздуха, измеренная на высоте 2 м над землей.
Te - Эффективная температура - температура, которую ощущает одетый по сезону человек в тени. Характеристика душности погоды. При расчете учитывается влияние влажности воздуха и скорости ветра на теплоощущения человека.
Tes - Эффективная температура на солнце - температура, которую ощущает человек, с поправкой на солнечный нагрев. Характеристика знойности погоды. Зависит от высоты солнца над горизонтом, облачности и скорости ветра. Ночью, в пасмурную погоду, а также при ветре 12 м/с и более поправка равна нулю.
P - Атмосферное давление - приведенное к уровню моря атмосферное давление.
Po - Атмосферное давление - измеренное на уровне метеостанции атмосферное давление.
Tmin - Минимальная температура - минимум температуры воздуха на высоте 2 м над землей.
Tmax - Максимальная температура - максимум температуры воздуха на высоте 2 м над землей.
R - Количество осадков - Количество выпавших осадков за период времени, мм. При наведении курсора мыши на число - период времени, за который выпало указанное количество осадков.
R24 - Количество осадков - Количество выпавших осадков за 24 часа, мм.
S - Снежный покров - Высота снежного покрова, см. При наведении курсора мыши на число - состояние снежного покрова и степень покрытия местности в баллах.